EW6741 Weather Reports


Display with metric or nautical units.
time (UTC)temp
F
wind
direction
speed
MPH
gust
MPH
rain 1hr
in
rain 24hr
in
rain mn
in
humidity
%
barometer
mb
20240521223813 68 171 1.0 3.0 0.00 0.00 0.00 81 1015.0
20240521222810 67 172 1.0 5.0 0.00 0.00 0.00 84 1015.0
20240521221805 67 180 2.0 7.0 0.00 0.00 0.00 84 1014.6
20240521220800 67 159 3.0 5.0 0.00 0.00 0.00 82 1015.0
20240521215751 68 155 4.0 7.0 0.00 0.00 0.00 81 1015.0
20240521214748 68 142 3.0 5.0 0.00 0.00 0.00 81 1015.0
20240521213744 68 155 2.0 5.0 0.00 0.00 0.00 81 1015.0
20240521212739 67 130 2.0 5.0 0.00 0.00 0.00 82 1015.0
20240521211735 67 162 2.0 5.0 0.00 0.00 0.00 82 1015.0
20240521211229 67 117 4.0 5.0 0.00 0.00 0.00 82 1015.0
20240521205723 67 146 4.0 7.0 0.00 0.00 0.00 82 1015.0
20240521204717 67 145 4.0 7.0 0.00 0.00 0.00 83 1015.0
20240521203713 67 146 5.0 7.0 0.00 0.00 0.00 83 1015.0
20240521202707 67 150 4.0 7.0 0.00 0.00 0.00 83 1015.0
20240521201707 67 172 3.0 9.0 0.00 0.00 0.00 83 1015.3
20240521200656 67 170 6.0 9.0 0.00 0.00 0.00 83 1015.0
20240521195654 66 147 3.0 7.0 0.00 0.00 0.00 84 1015.6
20240521194649 65 113 4.0 7.0 0.00 0.00 0.00 85 1015.3
20240521193644 65 140 3.0 9.0 0.00 0.00 0.00 85 1015.3
20240521192638 65 151 4.0 7.0 0.00 0.00 0.00 85 1015.3
20240521191636 66 174 2.0 7.0 0.00 0.00 0.00 85 1015.6
20240521190629 66 189 3.0 7.0 0.00 0.00 0.00 86 1015.6
20240521185623 65 125 2.0 5.0 0.00 0.00 0.00 87 1015.6
20240521184621 65 130 4.0 7.0 0.00 0.00 0.00 86 1015.6
20240521183612 65 143 3.0 5.0 0.00 0.00 0.00 86 1015.6
20240521183113 66 173 2.0 5.0 0.00 0.00 0.00 86 1015.6
20240521181608 65 145 5.0 7.0 0.00 0.00 0.00 86 1015.6
20240521180601 65 166 4.0 9.0 0.00 0.00 0.00 87 1015.6
20240521175558 65 148 3.0 10.0 0.00 0.00 0.00 88 1015.6
20240521175550 65 162 4.0 9.0 0.00 0.00 0.00 87 1015.6
20240521173547 66 178 4.0 7.0 0.00 0.00 0.00 85 1016.0
20240521173543 65 136 4.0 9.0 0.00 0.00 0.00 86 1016.0
20240521171539 66 159 4.0 9.0 0.00 0.00 0.00 85 1016.0
20240521170528 67 143 2.0 7.0 0.00 0.00 0.00 84 1016.3
20240521170023 67 125 2.0 5.0 0.00 0.00 0.00 82 1016.3
20240521165629 66 177 2.0 5.0 0.00 0.00 0.00 85 1016.3
20240521164020 68 167 3.0 5.0 0.00 0.00 0.00 83 1016.7
20240521162510 69 177 4.0 7.0 0.00 0.00 0.00 79 1016.7
20240521161508 67 157 4.0 7.0 0.00 0.00 0.00 82 1016.7
20240521160459 66 133 3.0 5.0 0.00 0.00 0.00 83 1016.7
20240521155954 66 177 1.0 5.0 0.00 0.00 0.00 84 1016.7
20240521154451 64 180 2.0 7.0 0.00 0.00 0.00 86 1017.0
20240521153443 63 149 2.0 7.0 0.00 0.00 0.00 87 1017.0
20240521152938 63 132 3.0 7.0 0.00 0.00 0.00 87 1017.0
20240521151438 62 169 5.0 7.0 0.00 0.00 0.00 88 1017.0
20240521151434 62 182 5.0 7.0 0.00 0.00 0.00 87 1017.0
20240521145420 63 171 4.0 7.0 0.00 0.00 0.00 86 1017.3
20240521144920 62 172 3.0 5.0 0.00 0.00 0.00 89 1017.3
20240521143413 61 203 1.0 5.0 0.00 0.00 0.00 90 1017.3
20240521142409 60 193 1.0 5.0 0.00 0.00 0.00 91 1017.3
20240521141403 60 199 0.0 5.0 0.00 0.00 0.00 92 1017.3
20240521140359 59 161 3.0 5.0 0.00 0.00 0.00 93 1017.3
20240521135349 59 186 1.0 5.0 0.00 0.00 0.00 93 1017.3
20240521134345 59 205 0.0 7.0 0.00 0.00 0.00 93 1017.3
20240521133343 59 181 2.0 5.0 0.00 0.00 0.00 93 1017.7
20240521132333 59 123 2.0 5.0 0.00 0.00 0.00 93 1017.7
20240521131335 58 193 1.0 7.0 0.00 0.00 0.00 93 1018.0
20240521130827 59 189 2.0 5.0 0.00 0.00 0.00 93 1018.0
20240521125326 58 173 2.0 7.0 0.00 0.00 0.00 92 1017.7
20240521124320 58 205 0.0 5.0 0.00 0.00 0.00 92 1018.0
20240521123312 58 205 3.0 5.0 0.00 0.00 0.00 92 1017.7
20240521122305 58 197 0.0 7.0 0.00 0.00 0.00 92 1017.7
20240521121805 58 177 0.0 3.0 0.00 0.00 0.00 92 1017.3
20240521120259 58 202 3.0 5.0 0.00 0.00 0.00 92 1017.3
20240521115755 58 212 2.0 5.0 0.00 0.00 0.00 92 1017.7
20240521114248 58 163 1.0 5.0 0.00 0.00 0.00 92 1017.3
20240521113245 58 190 0.0 5.0 0.00 0.00 0.00 92 1017.3
20240521112241 58 178 0.0 5.0 0.00 0.00 0.00 92 1017.3
20240521111240 57 172 0.0 5.0 0.00 0.00 0.00 92 1017.3
20240521111231 57 186 1.0 5.0 0.00 0.00 0.00 93 1017.3
20240521105226 57 201 1.0 5.0 0.00 0.00 0.00 93 1017.3
20240521104222 57 158 0.0 5.0 0.00 0.00 0.00 93 1017.3
20240521103719 57 133 1.0 5.0 0.00 0.00 0.00 93 1017.0
20240521102211 57 207 0.0 3.0 0.00 0.00 0.00 93 1017.0
20240521101209 56 195 0.0 3.0 0.00 0.00 0.00 94 1017.0
20240521100204 56 206 0.0 3.0 0.00 0.00 0.00 94 1017.0
20240521095156 56 192 1.0 3.0 0.00 0.00 0.00 94 1017.0
20240521094654 56 214 4.0 5.0 0.00 0.00 0.00 94 1016.7
20240521093151 56 203 1.0 3.0 0.00 0.00 0.00 94 1016.7
20240521092145 56 167 2.0 7.0 0.00 0.00 0.00 94 1016.7
20240521091145 56 184 1.0 5.0 0.00 0.00 0.00 94 1016.7
20240521090639 56 172 2.0 5.0 0.00 0.00 0.00 93 1016.7
20240521085133 56 201 0.0 7.0 0.00 0.00 0.00 93 1016.7
20240521084130 56 204 1.0 7.0 0.00 0.00 0.00 93 1016.7
20240521083127 56 206 0.0 3.0 0.00 0.00 0.00 93 1016.7
20240521082123 57 182 1.0 5.0 0.00 0.00 0.00 93 1016.7
20240521081124 57 176 2.0 5.0 0.00 0.00 0.00 93 1016.7
20240521080120 56 198 0.0 7.0 0.00 0.00 0.00 93 1017.0
20240521075112 56 193 1.0 5.0 0.00 0.00 0.00 93 1016.7
20240521074109 56 219 3.0 5.0 0.00 0.00 0.00 93 1016.7
20240521073106 56 181 0.0 5.0 0.00 0.00 0.00 92 1017.0
20240521072100 57 165 2.0 7.0 0.00 0.00 0.00 92 1016.7
20240521071101 57 182 1.0 5.0 0.00 0.00 0.00 92 1016.7
20240521070056 57 173 1.0 7.0 0.00 0.00 0.00 92 1016.7
20240521065050 57 220 3.0 5.0 0.00 0.00 0.00 92 1016.7
20240521064047 57 172 3.0 5.0 0.00 0.00 0.00 92 1017.0
20240521063043 57 189 2.0 5.0 0.00 0.00 0.00 92 1016.7
20240521062040 57 204 4.0 5.0 0.00 0.00 0.00 92 1016.7
20240521061540 57 197 0.0 5.0 0.00 0.00 0.00 92 1017.0
20240521060535 57 237 3.0 3.0 0.00 0.00 0.00 92 1017.0
20240521055034 57 191 2.0 5.0 0.00 0.00 0.00 92 1017.3
20240521054533 57 182 0.0 3.0 0.00 0.00 0.00 92 1017.3
20240521053029 57 183 0.0 7.0 0.00 0.00 0.00 92 1017.0
20240521052025 57 200 0.0 3.0 0.00 0.00 0.00 93 1017.3
20240521051023 57 164 0.0 5.0 0.00 0.00 0.00 93 1017.7
20240521050007 57 164 0.0 3.0 0.00 0.00 0.00 93 1017.3
20240521045003 57 193 0.0 3.0 0.00 0.00 0.00 93 1017.3
20240521044000 57 189 1.0 3.0 0.00 0.00 0.00 92 1017.7
20240521042956 57 186 0.0 3.0 0.00 0.00 0.00 92 1017.3
20240521041952 57 186 1.0 5.0 0.00 0.00 0.00 92 1017.7
20240521040952 57 179 0.0 5.0 0.00 0.00 0.00 91 1017.7
20240521040446 57 187 0.0 3.0 0.00 0.00 0.00 91 1017.3
20240521034941 57 171 2.0 5.0 0.00 0.00 0.00 91 1017.7
20240521034433 57 192 0.0 2.0 0.00 0.00 0.00 91 1017.7
20240521032929 57 183 0.0 3.0 0.00 0.00 0.00 90 1017.7
20240521031929 57 185 0.0 2.0 0.00 0.00 0.00 91 1018.0
20240521031925 57 166 0.0 5.0 0.00 0.00 0.00 91 1017.7
20240521025920 58 180 0.0 3.0 0.00 0.00 0.00 91 1018.0
20240521024919 58 206 0.0 5.0 0.00 0.00 0.00 91 1018.0
20240521023909 58 184 1.0 3.0 0.00 0.00 0.00 91 1018.0
20240521022908 58 132 2.0 5.0 0.00 0.00 0.00 91 1018.0
20240521021904 58 190 2.0 5.0 0.00 0.00 0.00 90 1018.0
20240521020900 58 181 2.0 5.0 0.00 0.00 0.00 90 1018.0
20240521015851 58 166 4.0 7.0 0.00 0.00 0.00 90 1018.0
20240521015351 59 187 3.0 9.0 0.00 0.00 0.00 90 1018.0
20240521014849 59 187 3.0 9.0 0.00 0.00 0.00 90 1018.0
20240521013845 59 202 4.0 9.0 0.00 0.00 0.00 90 1017.7
20240521012844 59 187 2.0 7.0 0.00 0.00 0.00 90 1018.0
20240521011839 60 193 3.0 9.0 0.00 0.00 0.00 89 1017.7
20240521010837 60 191 3.0 9.0 0.00 0.00 0.00 89 1017.7
20240521010332 60 219 5.0 10.0 0.00 0.00 0.00 89 1017.3
20240521004823 60 160 3.0 9.0 0.00 0.00 0.00 89 1017.0
20240521003820 61 158 3.0 7.0 0.00 0.00 0.00 89 1017.0
20240521002817 62 125 4.0 5.0 0.00 0.00 0.00 90 1017.0
20240521002312 61 183 0.0 0.0 0.00 0.00 0.00 89 1017.0
20240521000812 61 180 0.0 0.0 0.00 0.00 0.00 89 1016.7
20240520235801 62 186 0.0 0.0 0.00 0.00 0.00 88 1016.7
20240520235259 62 183 0.0 0.0 0.00 0.00 0.00 88 1016.7
20240520234256 62 192 0.0 2.0 0.00 0.00 0.00 88 1016.7
20240520232748 62 169 1.0 3.0 0.00 0.00 0.00 87 1016.7
20240520231744 62 177 0.0 3.0 0.00 0.00 0.00 86 1016.7
20240520230744 63 173 0.0 3.0 0.00 0.00 0.00 86 1016.7
20240520225738 63 164 0.0 3.0 0.00 0.00 0.00 86 1017.0
20240520224733 63 176 0.0 5.0 0.00 0.00 0.00 86 1017.0